Weather History for Danville, VA

Change the Weather History Date:

Wednesday, April 3, 2013

  Actual Average Record
Temperature  
Mean Temperature 44 °F 54 °F  
Max Temperature 59 °F 66 °F 90 °F (1963)
Min Temperature 29 °F 44 °F 28 °F (1962)
Degree Days  
Heating Degree Days 21 11  
Month to date heating degree days 45 34  
Since 1 July heating degree days 3500 3545  
Cooling Degree Days 0 1  
Month to date cooling degree days 0 2  
Year to date cooling degree days 2 5  
Moisture  
Dew Point 18 °F    
Average Humidity 41    
Maximum Humidity 64    
Minimum Humidity 17    
Precipitation  
Precipitation 0.00 in 0.13 in 1.23 in (1983)
Month to date precipitation 0.01 0.40  
Year to date precipitation 12.37 10.94  
Snow  
Snow 0.00 in - - ()
Month to date snowfall 0.0  
Since 1 July snowfall 1.7  
Snow Depth 0.00 in    
Sea Level Pressure  
Sea Level Pressure 30.24 in    
Wind  
Wind Speed 4 mph (NNW)    
Max Wind Speed 13 mph    
Max Gust Speed 21 mph    
Visibility 10 miles    
Events      
T = Trace of Precipitation, MM = Missing Value Source: NWS Daily Summary

Daily Weather History Graph

Daily Weather History Graph

Search for Another Location

Airport:

Trip Planner

Search our weather history database for the weather conditions in past years. The results will help you decide how hot, cold, wet, or windy it might be!

Date:

Astronomy

Apr. 03, 2013 Rise Set
Actual Time 7:00 AM EDT 7:41 PM EDT
Civil Twilight 6:34 AM EDT 8:07 PM EDT
Nautical Twilight 6:03 AM EDT 8:38 PM EDT
Astronomical Twilight 5:31 AM EDT 9:10 PM EDT
Moon 2:29 AM EDT (4/3) 1:01 PM EDT (4/3)
Length of Visible Light 13h 33m
Length of Day
12h 41m
Last Quarter, 45% of the Moon is Illuminated
Apr 3
Last Quarter
Apr 10
New
Apr 18
First Quarter
Apr 25
Full
May 2
Last Quarter

Hourly Weather History & Observations

Time (EDT) Temp. Windchill Dew Point Humidity Pressure Visibility Wind Dir Wind Speed Gust Speed Precip Events Conditions
12:53 AM 37.9 °F - 17.1 °F 43% 30.17 in 10.0 mi Calm Calm - N/A   Clear
1:53 AM 36.0 °F - 17.1 °F 46% 30.18 in 10.0 mi Calm Calm - N/A   Clear
2:53 AM 34.0 °F - 18.0 °F 52% 30.21 in 10.0 mi Calm Calm - N/A   Partly Cloudy
3:53 AM 32.0 °F - 18.0 °F 56% 30.20 in 10.0 mi Calm Calm - N/A   Scattered Clouds
4:53 AM 30.9 °F - 19.9 °F 64% 30.21 in 10.0 mi Calm Calm - N/A   Partly Cloudy
5:53 AM 30.9 °F 26.2 °F 19.9 °F 64% 30.23 in 10.0 mi NNW 4.6 mph - N/A   Partly Cloudy
6:53 AM 30.0 °F - 19.0 °F 64% 30.23 in 10.0 mi Calm Calm - N/A   Clear
7:53 AM 33.1 °F - 23.0 °F 66% 30.27 in 10.0 mi Calm Calm - N/A   Clear
8:53 AM 42.1 °F 37.7 °F 18.0 °F 38% 30.29 in 10.0 mi NNW 6.9 mph - N/A   Clear
9:53 AM 46.0 °F 44.8 °F 17.1 °F 31% 30.29 in 10.0 mi NNE 3.5 mph - N/A   Clear
10:53 AM 48.9 °F - 16.0 °F 27% 30.29 in 10.0 mi NW 6.9 mph - N/A   Clear
11:53 AM 50.0 °F - 15.1 °F 25% 30.27 in 10.0 mi Calm Calm - N/A   Clear
12:53 PM 52.0 °F - 15.1 °F 23% 30.24 in 10.0 mi WNW 5.8 mph - N/A   Clear
1:53 PM 54.0 °F - 16.0 °F 22% 30.24 in 10.0 mi North 8.1 mph - N/A   Clear
2:53 PM 55.9 °F - 17.1 °F 22% 30.21 in 10.0 mi Variable 4.6 mph - N/A   Clear
3:53 PM 57.0 °F - 17.1 °F 21% 30.22 in 10.0 mi West 11.5 mph 16.1 mph N/A   Clear
4:53 PM 57.0 °F - 15.1 °F 19% 30.21 in 10.0 mi NW 5.8 mph - N/A   Clear
5:53 PM 57.0 °F - 14.0 °F 18% 30.21 in 10.0 mi Variable 5.8 mph - N/A   Clear
6:53 PM 55.0 °F - 15.1 °F 21% 30.22 in 10.0 mi Calm Calm - N/A   Clear
7:53 PM 48.0 °F - 23.0 °F 37% 30.22 in 10.0 mi NE 4.6 mph - N/A   Clear
8:53 PM 46.9 °F - 21.9 °F 37% 30.25 in 10.0 mi Calm Calm - N/A   Clear
9:53 PM 46.0 °F 44.8 °F 17.1 °F 31% 30.27 in 10.0 mi North 3.5 mph - N/A   Clear
10:53 PM 46.0 °F 44.8 °F 16.0 °F 30% 30.30 in 10.0 mi NNE 3.5 mph - N/A   Clear
11:53 PM 46.0 °F 43.1 °F 15.1 °F 29% 30.31 in 10.0 mi NNE 5.8 mph - N/A   Clear